sat.trackr.live / text

‹ back to catalog

STARLINK-37671

NORAD 69206 · 2026-114AA

PAYLOAD ACTIVE UNKNOWN

§ Identity

Operator
Country
US
Launch date
2026-05-25
Launch site
AFETR
Launch vehicle
Mass (kg)
RCS (m²)

Purposes: comms

External: N2YO · Heavens-Above · Gunter

§ Orbital elements

Epoch: 2026-09-19T22:37:35.841216Z

Period
93.85 min
Inclination
53.1571°
Eccentricity
0.0000526
Mean motion
15.34405004 rev/d
Perigee alt
462.3 km
Apogee alt
463.0 km
Semi-major
6,840.8 km
B*
3.9923e-4
RAAN
116.0970°
Arg perigee
112.2098°
Mean anomaly
247.8960°
Rev number
1,936

§ Raw data

STARLINK-376711 69206U 26114AA  26262.94277594  .00013139  00000+0  39923-3 0  99972 69206  53.1571 116.0970 0000526 112.2098 247.8960 15.34405004 19368

JSON: /api/v1/satellites/69206 · /tle

For live sub-satellite position, see the globe view (requires WebGL).

§ Visibility from observer

Set your observer location to see the next 7 days of passes ≥ 10°. The values pass through the URL so the page stays shareable.

No JS? Fill the form by hand. The geolocation button needs JavaScript.